This is the latest recevied weather packets stored in our database for station/object KC0RKM-13. If no packets are shown the sender has not sent any weather packets the latest 10 day(s).
| Time | Temp. | Humidity | Pressure | Rain* | Wind** | Luminosity | Snow |
|---|---|---|---|---|---|---|---|
| 1787779204 | 32.78° C | 41% | 1015.6 hPa | 0 mm | - | - | - |
| 1787778604 | 33.33° C | 41% | 1015.4 hPa | 0 mm | - | - | - |
| 1787778006 | 33.33° C | 41% | 1015.6 hPa | 0 mm | - | - | - |
| 1787777404 | 33.89° C | 37% | 1015.5 hPa | 0 mm | - | - | - |
| 1787776805 | 33.89° C | 39% | 1015.5 hPa | 0 mm | - | - | - |
| 1787776203 | 34.44° C | 39% | 1015.6 hPa | 0 mm | - | - | - |
| 1787775604 | 35° C | 39% | 1015.7 hPa | 0 mm | - | - | - |
| 1787775003 | 35° C | 36% | 1015.6 hPa | 0 mm | - | - | - |
| 1787774407 | 33.89° C | 37% | 1016.1 hPa | 0 mm | - | - | - |
| 1787773804 | 34.44° C | 38% | 1015.9 hPa | 0 mm | - | - | - |
| 1787773204 | 32.78° C | 41% | 1016.1 hPa | 0 mm | - | - | - |
| 1787772604 | 33.89° C | 44% | 1016.1 hPa | 0 mm | - | - | - |
| 1787772004 | 33.33° C | 44% | 1016.3 hPa | 0 mm | - | - | - |
| 1787771404 | 33.33° C | 44% | 1016.1 hPa | 0 mm | - | - | - |
| 1787770804 | 33.89° C | 41% | 1016.3 hPa | 0 mm | - | - | - |
| 1787770203 | 33.33° C | 48% | 1016.2 hPa | 0 mm | - | - | - |
| 1787769604 | 32.78° C | 44% | 1016.3 hPa | 0 mm | - | - | - |
| 1787769004 | 33.33° C | 49% | 1016.5 hPa | 0 mm | - | - | - |
| 1787768404 | 32.22° C | 52% | 1016.5 hPa | 0 mm | - | - | - |
| 1787767807 | 32.78° C | 50% | 1016.7 hPa | 0 mm | - | - | - |
| 1787767207 | 32.78° C | 49% | 1016.4 hPa | 0 mm | - | - | - |
| 1787766603 | 32.78° C | 49% | 1016.5 hPa | 0 mm | - | - | - |
| 1787766004 | 31.67° C | 51% | 1016.9 hPa | 0 mm | - | - | - |
| 1787765405 | 32.22° C | 50% | 1016.7 hPa | 0 mm | - | - | - |
| 1787764803 | 32.22° C | 52% | 1016.8 hPa | 0 mm | - | - | - |
* Rain latest hour (hover to see other rain measurements)
** Current wind speed in m/s (hover to see current wind gust speed)